Time,TemperatureF,DewpointF,PressureIn,WindDirection,WindDirectionDegrees,WindSpeedMPH,WindSpeedGustMPH,Humidity,HourlyPrecipIn,Conditions,Clouds,dailyrainin,SoftwareType,DateUTC
2013-07-24 00:00:00,69.3,69.3,29.55,SW,215,5.0,5.0,100,0.00,,,2.06,Wunderground v.1.15,2013-07-24 03:00:00,
2013-07-24 00:05:00,69.3,69.3,29.56,WSW,238,4.0,5.0,100,0.00,,,0.00,Wunderground v.1.15,2013-07-24 03:05:00,
2013-07-24 00:10:00,69.4,69.4,29.56,SSW,213,3.0,3.0,100,0.00,,,0.00,Wunderground v.1.15,2013-07-24 03:10:00,
2013-07-24 00:15:00,69.5,69.5,29.55,SW,227,3.0,4.0,100,0.00,,,0.00,Wunderground v.1.15,2013-07-24 03:15:00,
2013-07-24 00:20:00,69.6,69.6,29.55,SW,225,3.0,3.0,100,0.00,,,0.00,Wunderground v.1.15,2013-07-24 03:20:00,
2013-07-24 00:25:00,69.7,69.7,29.55,SSW,207,4.0,4.0,100,0.00,,,0.00,Wunderground v.1.15,2013-07-24 03:25:00,
2013-07-24 00:30:00,69.7,69.7,29.55,SW,230,4.0,4.0,100,0.00,,,0.00,Wunderground v.1.15,2013-07-24 03:30:00,
2013-07-24 00:35:00,69.7,69.7,29.55,SW,225,4.0,4.0,100,0.00,,,0.00,Wunderground v.1.15,2013-07-24 03:35:00,
2013-07-24 00:40:00,69.7,69.7,29.55,SW,227,4.0,4.0,100,0.00,,,0.00,Wunderground v.1.15,2013-07-24 03:40:00,
2013-07-24 00:45:00,69.7,69.7,29.55,SW,219,4.0,5.0,100,0.00,,,0.00,Wunderground v.1.15,2013-07-24 03:45:00,
2013-07-24 00:50:00,69.7,69.7,29.55,NW,314,3.0,3.0,100,0.00,,,0.00,Wunderground v.1.15,2013-07-24 03:50:00,
2013-07-24 00:55:00,69.7,69.7,29.55,WSW,252,3.0,3.0,100,0.00,,,0.00,Wunderground v.1.15,2013-07-24 03:55:00,
2013-07-24 01:05:00,69.7,69.7,29.54,WSW,246,3.0,3.0,100,0.00,,,0.00,Wunderground v.1.15,2013-07-24 04:05:00,
2013-07-24 01:10:00,69.8,69.8,29.54,SW,221,3.0,4.0,100,0.00,,,0.00,Wunderground v.1.15,2013-07-24 04:10:00,
2013-07-24 01:15:00,69.8,69.8,29.54,SSW,213,3.0,7.0,100,0.00,,,0.00,Wunderground v.1.15,2013-07-24 04:15:00,
2013-07-24 01:20:00,69.8,69.8,29.54,SW,217,4.0,5.0,100,0.00,,,0.00,Wunderground v.1.15,2013-07-24 04:20:00,
2013-07-24 01:25:00,69.8,69.8,29.54,West,268,4.0,5.0,100,0.00,,,0.00,Wunderground v.1.15,2013-07-24 04:25:00,
2013-07-24 01:30:00,69.8,69.8,29.54,SW,229,3.0,3.0,100,0.00,,,0.00,Wunderground v.1.15,2013-07-24 04:30:00,
2013-07-24 01:35:00,69.7,69.7,29.54,SW,231,4.0,4.0,100,0.00,,,0.00,Wunderground v.1.15,2013-07-24 04:35:00,
2013-07-24 01:40:00,69.7,69.7,29.54,WSW,243,4.0,4.0,100,0.00,,,0.00,Wunderground v.1.15,2013-07-24 04:40:00,
2013-07-24 01:45:00,69.7,69.7,29.54,WSW,242,4.0,4.0,100,0.00,,,0.00,Wunderground v.1.15,2013-07-24 04:45:00,
2013-07-24 01:50:00,69.8,69.8,29.54,West,261,4.0,4.0,100,0.00,,,0.00,Wunderground v.1.15,2013-07-24 04:50:00,
2013-07-24 01:55:00,69.7,69.7,29.54,West,263,3.0,4.0,100,0.00,,,0.00,Wunderground v.1.15,2013-07-24 04:55:00,
2013-07-24 02:00:00,69.7,69.7,29.54,SSW,202,3.0,3.0,100,0.00,,,0.00,Wunderground v.1.15,2013-07-24 05:00:00,
2013-07-24 02:05:00,69.7,69.7,29.54,SSW,208,3.0,5.0,100,0.00,,,0.00,Wunderground v.1.15,2013-07-24 05:05:00,
2013-07-24 02:10:00,69.7,69.7,29.54,SSW,210,3.0,3.0,100,0.00,,,0.00,Wunderground v.1.15,2013-07-24 05:10:00,
2013-07-24 02:20:00,69.7,69.7,29.54,WSW,244,3.0,3.0,100,0.00,,,0.00,Wunderground v.1.15,2013-07-24 05:20:00,
2013-07-24 02:25:00,69.6,69.6,29.53,SW,217,3.0,3.0,100,0.00,,,0.00,Wunderground v.1.15,2013-07-24 05:25:00,
2013-07-24 02:30:00,69.6,69.6,29.54,SW,234,3.0,3.0,100,0.00,,,0.00,Wunderground v.1.15,2013-07-24 05:30:00,
2013-07-24 02:35:00,69.5,69.5,29.54,SW,236,2.0,3.0,100,0.00,,,0.00,Wunderground v.1.15,2013-07-24 05:35:00,
2013-07-24 02:40:00,69.5,69.5,29.54,SSW,207,2.0,3.0,100,0.00,,,0.00,Wunderground v.1.15,2013-07-24 05:40:00,
2013-07-24 02:45:00,69.4,69.4,29.54,WSW,257,3.0,3.0,100,0.00,,,0.00,Wunderground v.1.15,2013-07-24 05:45:00,
2013-07-24 02:50:00,69.4,69.4,29.54,SW,231,3.0,3.0,100,0.00,,,0.00,Wunderground v.1.15,2013-07-24 05:50:00,
2013-07-24 02:55:00,69.4,69.4,29.54,WSW,248,3.0,3.0,100,0.00,,,0.00,Wunderground v.1.15,2013-07-24 05:55:00,
2013-07-24 03:00:00,69.4,69.4,29.54,SSW,213,3.0,3.0,100,0.00,,,0.00,Wunderground v.1.15,2013-07-24 06:00:00,
2013-07-24 03:05:00,69.4,69.4,29.54,SW,228,3.0,3.0,100,0.00,,,0.00,Wunderground v.1.15,2013-07-24 06:05:00,
2013-07-24 03:10:00,69.4,69.4,29.54,SW,224,5.0,5.0,100,0.00,,,0.00,Wunderground v.1.15,2013-07-24 06:10:00,
2013-07-24 03:15:00,69.4,69.4,29.54,SW,233,4.0,5.0,100,0.00,,,0.00,Wunderground v.1.15,2013-07-24 06:15:00,
2013-07-24 03:20:00,69.4,69.4,29.54,SW,231,3.0,3.0,100,0.00,,,0.00,Wunderground v.1.15,2013-07-24 06:20:00,
2013-07-24 03:25:00,69.5,69.5,29.54,SW,230,3.0,5.0,100,0.00,,,0.00,Wunderground v.1.15,2013-07-24 06:25:00,
2013-07-24 03:30:00,69.5,69.5,29.54,SSW,213,3.0,5.0,100,0.00,,,0.00,Wunderground v.1.15,2013-07-24 06:30:00,
2013-07-24 03:35:00,69.5,69.5,29.54,SW,227,4.0,5.0,100,0.00,,,0.01,Wunderground v.1.15,2013-07-24 06:35:00,
2013-07-24 03:40:00,69.6,69.6,29.54,SW,225,3.0,5.0,100,0.00,,,0.01,Wunderground v.1.15,2013-07-24 06:40:00,
2013-07-24 03:50:00,69.6,69.6,29.53,SW,216,3.0,4.0,100,0.00,,,0.01,Wunderground v.1.15,2013-07-24 06:50:00,
2013-07-24 03:55:00,69.6,69.6,29.53,SW,234,3.0,4.0,100,0.00,,,0.01,Wunderground v.1.15,2013-07-24 06:55:00,
2013-07-24 04:00:00,69.5,69.5,29.53,SSW,206,2.0,4.0,100,0.00,,,0.01,Wunderground v.1.15,2013-07-24 07:00:00,
2013-07-24 04:05:00,69.5,69.5,29.53,SW,232,2.0,4.0,100,0.00,,,0.01,Wunderground v.1.15,2013-07-24 07:05:00,
2013-07-24 04:10:00,69.4,69.4,29.53,WSW,250,2.0,2.0,100,0.00,,,0.01,Wunderground v.1.15,2013-07-24 07:10:00,
2013-07-24 04:15:00,69.4,69.4,29.53,SW,236,2.0,6.0,100,0.00,,,0.01,Wunderground v.1.15,2013-07-24 07:15:00,
2013-07-24 04:20:00,69.4,69.4,29.53,SSW,211,2.0,4.0,100,0.00,,,0.01,Wunderground v.1.15,2013-07-24 07:20:00,
2013-07-24 04:25:00,69.4,69.4,29.53,SW,228,2.0,4.0,100,0.00,,,0.01,Wunderground v.1.15,2013-07-24 07:25:00,
2013-07-24 04:30:00,69.4,69.4,29.53,SW,218,3.0,6.0,100,0.00,,,0.01,Wunderground v.1.15,2013-07-24 07:30:00,
2013-07-24 04:35:00,69.3,69.3,29.53,SW,221,3.0,6.0,100,0.00,,,0.01,Wunderground v.1.15,2013-07-24 07:35:00,
2013-07-24 04:40:00,69.4,69.4,29.53,SW,219,3.0,4.0,100,0.00,,,0.01,Wunderground v.1.15,2013-07-24 07:40:00,
2013-07-24 04:45:00,69.4,69.4,29.53,SW,223,4.0,4.0,100,0.00,,,0.01,Wunderground v.1.15,2013-07-24 07:45:00,
2013-07-24 04:50:00,69.5,69.5,29.53,WSW,239,4.0,4.0,100,0.00,,,0.01,Wunderground v.1.15,2013-07-24 07:50:00,
2013-07-24 04:55:00,69.6,69.6,29.53,WSW,245,4.0,4.0,100,0.00,,,0.01,Wunderground v.1.15,2013-07-24 07:55:00,
2013-07-24 05:00:00,69.6,69.6,29.53,SW,226,4.0,6.0,100,0.00,,,0.01,Wunderground v.1.15,2013-07-24 08:00:00,
2013-07-24 05:05:00,69.6,69.6,29.52,SW,216,4.0,6.0,100,0.00,,,0.01,Wunderground v.1.15,2013-07-24 08:05:00,
2013-07-24 05:10:00,69.6,69.6,29.52,SW,224,3.0,3.0,100,0.00,,,0.01,Wunderground v.1.15,2013-07-24 08:10:00,
2013-07-24 05:15:00,69.6,69.6,29.53,SW,232,3.0,3.0,100,0.00,,,0.01,Wunderground v.1.15,2013-07-24 08:15:00,
2013-07-24 05:20:00,69.5,69.5,29.52,SW,223,3.0,5.0,100,0.00,,,0.01,Wunderground v.1.15,2013-07-24 08:20:00,
2013-07-24 05:25:00,69.6,69.6,29.52,West,263,4.0,5.0,100,0.00,,,0.01,Wunderground v.1.15,2013-07-24 08:25:00,
2013-07-24 05:30:00,69.5,69.5,29.52,SW,231,4.0,4.0,100,0.00,,,0.01,Wunderground v.1.15,2013-07-24 08:30:00,
2013-07-24 05:35:00,69.5,69.5,29.52,WSW,243,3.0,4.0,100,0.00,,,0.01,Wunderground v.1.15,2013-07-24 08:35:00,
2013-07-24 05:40:00,69.5,69.5,29.52,SW,227,3.0,7.0,100,0.00,,,0.01,Wunderground v.1.15,2013-07-24 08:40:00,
2013-07-24 05:45:00,69.5,69.5,29.52,SW,232,3.0,7.0,100,0.00,,,0.01,Wunderground v.1.15,2013-07-24 08:45:00,
2013-07-24 05:50:00,69.5,69.5,29.52,WSW,244,3.0,4.0,100,0.00,,,0.01,Wunderground v.1.15,2013-07-24 08:50:00,
2013-07-24 05:55:00,69.5,69.5,29.52,SW,225,3.0,5.0,100,0.00,,,0.01,Wunderground v.1.15,2013-07-24 08:55:00,
2013-07-24 06:00:00,69.5,69.5,29.53,SW,224,3.0,3.0,100,0.00,,,0.01,Wunderground v.1.15,2013-07-24 09:00:00,
2013-07-24 06:05:00,69.5,69.5,29.53,SSW,206,3.0,3.0,100,0.00,,,0.01,Wunderground v.1.15,2013-07-24 09:05:00,
2013-07-24 06:10:00,69.5,69.5,29.53,SSW,209,3.0,3.0,100,0.00,,,0.01,Wunderground v.1.15,2013-07-24 09:10:00,
2013-07-24 06:15:00,69.5,69.5,29.54,SW,234,3.0,4.0,100,0.00,,,0.01,Wunderground v.1.15,2013-07-24 09:15:00,
2013-07-24 06:20:00,69.5,69.5,29.54,West,280,4.0,4.0,100,0.00,,,0.01,Wunderground v.1.15,2013-07-24 09:20:00,
2013-07-24 06:25:00,69.5,69.5,29.54,WSW,248,4.0,6.0,100,0.00,,,0.01,Wunderground v.1.15,2013-07-24 09:25:00,
2013-07-24 06:30:00,69.6,69.6,29.54,SSW,209,4.0,4.0,100,0.00,,,0.01,Wunderground v.1.15,2013-07-24 09:30:00,
2013-07-24 06:35:00,69.6,69.6,29.54,SW,227,4.0,4.0,100,0.00,,,0.01,Wunderground v.1.15,2013-07-24 09:35:00,
2013-07-24 06:40:00,69.7,69.7,29.55,West,277,3.0,3.0,100,0.00,,,0.01,Wunderground v.1.15,2013-07-24 09:40:00,
2013-07-24 06:45:00,69.7,69.7,29.54,SW,227,3.0,5.0,100,0.00,,,0.01,Wunderground v.1.15,2013-07-24 09:45:00,
2013-07-24 06:50:00,69.7,69.7,29.54,SW,236,4.0,4.0,100,0.00,,,0.01,Wunderground v.1.15,2013-07-24 09:50:00,
2013-07-24 06:55:00,69.7,69.7,29.54,WSW,242,4.0,4.0,100,0.00,,,0.01,Wunderground v.1.15,2013-07-24 09:55:00,
2013-07-24 07:00:00,69.7,69.7,29.55,West,265,3.0,3.0,100,0.00,,,0.01,Wunderground v.1.15,2013-07-24 10:00:00,
2013-07-24 07:05:00,69.6,69.6,29.55,West,281,3.0,6.0,100,0.00,,,0.01,Wunderground v.1.15,2013-07-24 10:05:00,
2013-07-24 07:10:00,69.5,69.5,29.55,West,279,4.0,10.0,100,0.00,,,0.01,Wunderground v.1.15,2013-07-24 10:10:00,
2013-07-24 07:15:00,69.4,69.4,29.56,West,275,6.0,10.0,100,0.00,,,0.01,Wunderground v.1.15,2013-07-24 10:15:00,
2013-07-24 07:20:00,69.1,69.1,29.56,West,279,6.0,6.0,100,0.00,,,0.01,Wunderground v.1.15,2013-07-24 10:20:00,
2013-07-24 07:25:00,68.7,68.7,29.56,West,270,7.0,9.0,100,0.00,,,0.01,Wunderground v.1.15,2013-07-24 10:25:00,
2013-07-24 07:30:00,68.4,68.4,29.56,NW,313,8.0,8.0,100,0.00,,,0.01,Wunderground v.1.15,2013-07-24 10:30:00,
2013-07-24 07:40:00,67.7,67.7,29.56,WNW,297,9.0,9.0,100,0.00,,,0.01,Wunderground v.1.15,2013-07-24 10:40:00,
2013-07-24 07:45:00,67.6,67.6,29.57,West,263,9.0,11.0,100,0.00,,,0.01,Wunderground v.1.15,2013-07-24 10:45:00,
2013-07-24 07:55:00,67.4,67.4,29.57,West,278,10.0,13.0,100,0.00,,,0.01,Wunderground v.1.15,2013-07-24 10:55:00,
2013-07-24 08:00:00,67.4,67.4,29.57,West,281,10.0,10.0,100,0.00,,,0.01,Wunderground v.1.15,2013-07-24 11:00:00,
2013-07-24 08:05:00,67.4,67.4,29.58,WNW,287,9.0,11.0,100,0.00,,,0.02,Wunderground v.1.15,2013-07-24 11:05:00,
2013-07-24 08:10:00,67.3,67.3,29.58,West,263,9.0,9.0,100,0.00,,,0.02,Wunderground v.1.15,2013-07-24 11:10:00,
2013-07-24 08:15:00,67.2,67.2,29.58,West,270,9.0,9.0,100,0.00,,,0.02,Wunderground v.1.15,2013-07-24 11:15:00,
2013-07-24 08:20:00,67.2,67.2,29.58,West,263,9.0,12.0,100,0.00,,,0.02,Wunderground v.1.15,2013-07-24 11:20:00,
2013-07-24 08:25:00,67.1,67.1,29.58,WNW,286,8.0,12.0,100,0.00,,,0.02,Wunderground v.1.15,2013-07-24 11:25:00,
2013-07-24 08:30:00,67.0,67.0,29.58,WSW,258,7.0,7.0,100,0.00,,,0.02,Wunderground v.1.15,2013-07-24 11:30:00,
2013-07-24 08:40:00,67.0,67.0,29.58,West,277,7.0,8.0,100,0.00,,,0.02,Wunderground v.1.15,2013-07-24 11:40:00,
2013-07-24 08:45:00,67.0,67.0,29.58,West,265,8.0,8.0,100,0.00,,,0.02,Wunderground v.1.15,2013-07-24 11:45:00,
2013-07-24 08:50:00,66.9,66.9,29.58,West,281,7.0,10.0,100,0.00,,,0.02,Wunderground v.1.15,2013-07-24 11:50:00,
2013-07-24 08:55:00,66.9,66.9,29.58,West,274,7.0,10.0,100,0.00,,,0.02,Wunderground v.1.15,2013-07-24 11:55:00,
2013-07-24 09:00:00,66.8,66.8,29.59,SW,226,7.0,7.0,100,0.00,,,0.02,Wunderground v.1.15,2013-07-24 12:00:00,
2013-07-24 09:05:00,66.8,66.8,29.59,WSW,250,7.0,7.0,100,0.00,,,0.02,Wunderground v.1.15,2013-07-24 12:05:00,
2013-07-24 09:10:00,67.0,67.0,29.59,West,261,6.0,6.0,100,0.00,,,0.02,Wunderground v.1.15,2013-07-24 12:10:00,
2013-07-24 09:15:00,67.1,67.1,29.59,West,267,6.0,6.0,100,0.00,,,0.02,Wunderground v.1.15,2013-07-24 12:15:00,
2013-07-24 09:20:00,67.1,67.1,29.59,West,267,7.0,10.0,100,0.00,,,0.02,Wunderground v.1.15,2013-07-24 12:20:00,
2013-07-24 09:25:00,67.1,67.1,29.59,West,265,8.0,11.0,100,0.00,,,0.02,Wunderground v.1.15,2013-07-24 12:25:00,
2013-07-24 09:30:00,67.1,67.1,29.60,WSW,256,10.0,10.0,100,0.00,,,0.02,Wunderground v.1.15,2013-07-24 12:30:00,
2013-07-24 09:35:00,67.0,67.0,29.60,WNW,282,10.0,10.0,100,0.00,,,0.02,Wunderground v.1.15,2013-07-24 12:35:00,
2013-07-24 09:40:00,66.8,66.8,29.60,WSW,257,10.0,16.0,100,0.00,,,0.02,Wunderground v.1.15,2013-07-24 12:40:00,
2013-07-24 09:45:00,66.7,66.4,29.60,West,271,10.0,16.0,99,0.00,,,0.02,Wunderground v.1.15,2013-07-24 12:45:00,
2013-07-24 09:50:00,66.6,66.6,29.60,WSW,256,11.0,12.0,100,0.00,,,0.02,Wunderground v.1.15,2013-07-24 12:50:00,
2013-07-24 09:55:00,66.6,66.6,29.60,West,275,10.0,12.0,100,0.00,,,0.02,Wunderground v.1.15,2013-07-24 12:55:00,
2013-07-24 10:00:00,66.7,66.7,29.60,WNW,293,9.0,9.0,100,0.00,,,0.02,Wunderground v.1.15,2013-07-24 13:00:00,
2013-07-24 10:05:00,66.7,66.7,29.60,West,281,9.0,9.0,100,0.00,,,0.02,Wunderground v.1.15,2013-07-24 13:05:00,
2013-07-24 10:10:00,66.6,66.6,29.60,West,269,10.0,10.0,100,0.00,,,0.02,Wunderground v.1.15,2013-07-24 13:10:00,
2013-07-24 10:15:00,66.5,66.5,29.61,WNW,294,10.0,10.0,100,0.00,,,0.02,Wunderground v.1.15,2013-07-24 13:15:00,
2013-07-24 10:20:00,66.5,66.5,29.61,West,271,9.0,9.0,100,0.00,,,0.02,Wunderground v.1.15,2013-07-24 13:20:00,
2013-07-24 10:25:00,66.4,66.4,29.61,West,275,9.0,9.0,100,0.00,,,0.02,Wunderground v.1.15,2013-07-24 13:25:00,
2013-07-24 10:30:00,66.5,66.5,29.61,West,279,9.0,9.0,100,0.00,,,0.02,Wunderground v.1.15,2013-07-24 13:30:00,
2013-07-24 10:35:00,66.4,66.4,29.62,WNW,290,8.0,9.0,100,0.00,,,0.02,Wunderground v.1.15,2013-07-24 13:35:00,
2013-07-24 10:40:00,66.3,66.3,29.62,West,281,8.0,10.0,100,0.00,,,0.02,Wunderground v.1.15,2013-07-24 13:40:00,
2013-07-24 10:45:00,66.3,66.3,29.62,West,267,9.0,10.0,100,0.00,,,0.02,Wunderground v.1.15,2013-07-24 13:45:00,
2013-07-24 10:50:00,66.4,66.4,29.63,WNW,296,8.0,10.0,100,0.00,,,0.02,Wunderground v.1.15,2013-07-24 13:50:00,
2013-07-24 10:55:00,66.4,66.4,29.63,West,275,8.0,10.0,100,0.00,,,0.02,Wunderground v.1.15,2013-07-24 13:55:00,
2013-07-24 11:00:00,66.5,66.5,29.63,WNW,286,8.0,8.0,100,0.00,,,0.02,Wunderground v.1.15,2013-07-24 14:00:00,
2013-07-24 11:05:00,66.6,66.6,29.63,West,260,7.0,10.0,100,0.00,,,0.02,Wunderground v.1.15,2013-07-24 14:05:00,
2013-07-24 11:10:00,66.7,66.7,29.64,WNW,288,8.0,8.0,100,0.00,,,0.02,Wunderground v.1.15,2013-07-24 14:10:00,
2013-07-24 11:15:00,66.7,66.7,29.64,West,275,9.0,9.0,100,0.00,,,0.02,Wunderground v.1.15,2013-07-24 14:15:00,
2013-07-24 11:20:00,66.7,66.7,29.64,West,275,8.0,9.0,100,0.00,,,0.02,Wunderground v.1.15,2013-07-24 14:20:00,
2013-07-24 11:25:00,66.6,66.6,29.64,West,277,8.0,12.0,100,0.00,,,0.02,Wunderground v.1.15,2013-07-24 14:25:00,
2013-07-24 11:30:00,66.5,66.5,29.64,West,275,9.0,9.0,100,0.00,,,0.02,Wunderground v.1.15,2013-07-24 14:30:00,
2013-07-24 11:40:00,66.8,66.8,29.65,WNW,297,7.0,7.0,100,0.00,,,0.02,Wunderground v.1.15,2013-07-24 14:40:00,
2013-07-24 11:45:00,66.9,66.9,29.65,West,269,8.0,8.0,100,0.00,,,0.02,Wunderground v.1.15,2013-07-24 14:45:00,
2013-07-24 11:55:00,67.1,67.1,29.66,West,279,7.0,10.0,100,0.00,,,0.02,Wunderground v.1.15,2013-07-24 14:55:00,
2013-07-24 12:00:00,67.2,66.9,29.66,West,276,7.0,8.0,99,0.00,,,0.02,Wunderground v.1.15,2013-07-24 15:00:00,
2013-07-24 12:05:00,67.3,67.0,29.66,WSW,242,7.0,8.0,99,0.00,,,0.02,Wunderground v.1.15,2013-07-24 15:05:00,
2013-07-24 12:10:00,67.4,67.1,29.66,WNW,298,6.0,7.0,99,0.00,,,0.02,Wunderground v.1.15,2013-07-24 15:10:00,
2013-07-24 12:15:00,67.4,67.1,29.67,WNW,294,7.0,7.0,99,0.00,,,0.02,Wunderground v.1.15,2013-07-24 15:15:00,
2013-07-24 12:20:00,67.7,67.4,29.67,West,276,7.0,7.0,99,0.00,,,0.02,Wunderground v.1.15,2013-07-24 15:20:00,
2013-07-24 12:25:00,67.8,67.5,29.66,West,268,7.0,7.0,99,0.00,,,0.02,Wunderground v.1.15,2013-07-24 15:25:00,
2013-07-24 12:30:00,68.1,67.5,29.67,WNW,298,7.0,8.0,98,0.00,,,0.02,Wunderground v.1.15,2013-07-24 15:30:00,
2013-07-24 12:35:00,68.2,67.6,29.67,West,266,8.0,8.0,98,0.00,,,0.02,Wunderground v.1.15,2013-07-24 15:35:00,
2013-07-24 12:45:00,69.1,68.2,29.67,West,280,8.0,9.0,97,0.00,,,0.02,Wunderground v.1.15,2013-07-24 15:45:00,
2013-07-24 12:50:00,69.5,68.3,29.68,West,269,8.0,8.0,96,0.00,,,0.02,Wunderground v.1.15,2013-07-24 15:50:00,
2013-07-24 12:55:00,70.1,68.6,29.68,West,264,9.0,9.0,95,0.00,,,0.02,Wunderground v.1.15,2013-07-24 15:55:00,
2013-07-24 13:00:00,70.5,68.7,29.68,WNW,292,9.0,12.0,94,0.00,,,0.02,Wunderground v.1.15,2013-07-24 16:00:00,
2013-07-24 13:05:00,71.3,69.5,29.68,NW,310,9.0,12.0,94,0.00,,,0.02,Wunderground v.1.15,2013-07-24 16:05:00,
2013-07-24 13:10:00,71.6,69.5,29.68,WNW,298,10.0,10.0,93,0.00,,,0.02,Wunderground v.1.15,2013-07-24 16:10:00,
2013-07-24 13:15:00,72.0,69.5,29.68,West,281,10.0,13.0,92,0.00,,,0.02,Wunderground v.1.15,2013-07-24 16:15:00,
2013-07-24 13:20:00,71.8,68.7,29.68,WSW,251,10.0,11.0,90,0.00,,,0.02,Wunderground v.1.15,2013-07-24 16:20:00,
2013-07-24 13:25:00,72.2,69.7,29.68,West,277,10.0,11.0,92,0.00,,,0.02,Wunderground v.1.15,2013-07-24 16:25:00,
2013-07-24 13:30:00,73.2,70.4,29.68,West,270,9.0,9.0,91,0.00,,,0.02,Wunderground v.1.15,2013-07-24 16:30:00,
2013-07-24 13:40:00,74.0,69.9,29.69,WSW,258,7.0,7.0,87,0.00,,,0.02,Wunderground v.1.15,2013-07-24 16:40:00,
2013-07-24 13:45:00,74.3,70.5,29.68,West,277,8.0,8.0,88,0.00,,,0.02,Wunderground v.1.15,2013-07-24 16:45:00,
2013-07-24 13:50:00,74.3,70.2,29.68,WNW,294,8.0,8.0,87,0.00,,,0.02,Wunderground v.1.15,2013-07-24 16:50:00,
2013-07-24 13:55:00,74.3,70.5,29.69,WNW,291,7.0,8.0,88,0.00,,,0.02,Wunderground v.1.15,2013-07-24 16:55:00,
2013-07-24 14:00:00,74.4,70.3,29.69,West,269,6.0,6.0,87,0.00,,,0.02,Wunderground v.1.15,2013-07-24 17:00:00,
2013-07-24 14:05:00,73.9,69.4,29.69,WSW,246,7.0,11.0,86,0.00,,,0.02,Wunderground v.1.15,2013-07-24 17:05:00,
2013-07-24 14:10:00,73.8,69.7,29.69,West,280,8.0,9.0,87,0.00,,,0.02,Wunderground v.1.15,2013-07-24 17:10:00,
2013-07-24 14:15:00,73.7,69.6,29.69,WSW,256,8.0,9.0,87,0.00,,,0.02,Wunderground v.1.15,2013-07-24 17:15:00,
2013-07-24 14:20:00,74.0,70.6,29.69,WNW,294,7.0,8.0,89,0.00,,,0.02,Wunderground v.1.15,2013-07-24 17:20:00,
2013-07-24 14:25:00,74.2,69.4,29.69,West,275,7.0,10.0,85,0.00,,,0.02,Wunderground v.1.15,2013-07-24 17:25:00,
2013-07-24 14:35:00,74.4,69.2,29.69,West,269,7.0,7.0,84,0.00,,,0.02,Wunderground v.1.15,2013-07-24 17:35:00,
2013-07-24 14:45:00,74.3,69.5,29.69,SW,215,7.0,12.0,85,0.00,,,0.02,Wunderground v.1.15,2013-07-24 17:45:00,
2013-07-24 14:50:00,74.4,69.2,29.69,West,275,7.0,10.0,84,0.00,,,0.02,Wunderground v.1.15,2013-07-24 17:50:00,
2013-07-24 14:55:00,74.1,69.3,29.69,WNW,290,7.0,10.0,85,0.00,,,0.02,Wunderground v.1.15,2013-07-24 17:55:00,
2013-07-24 15:00:00,74.5,70.0,29.69,West,279,7.0,9.0,86,0.00,,,0.02,Wunderground v.1.15,2013-07-24 18:00:00,
2013-07-24 15:05:00,74.6,69.4,29.69,WSW,254,7.0,9.0,84,0.00,,,0.02,Wunderground v.1.15,2013-07-24 18:05:00,
2013-07-24 15:10:00,75.0,70.2,29.70,West,275,7.0,13.0,85,0.00,,,0.02,Wunderground v.1.15,2013-07-24 18:10:00,
2013-07-24 15:20:00,75.5,70.0,29.70,WSW,243,7.0,7.0,83,0.00,,,0.02,Wunderground v.1.15,2013-07-24 18:20:00,
2013-07-24 15:25:00,75.1,69.6,29.70,West,273,7.0,8.0,83,0.00,,,0.02,Wunderground v.1.15,2013-07-24 18:25:00,
2013-07-24 15:35:00,74.5,69.7,29.70,WNW,301,6.0,6.0,85,0.00,,,0.02,Wunderground v.1.15,2013-07-24 18:35:00,
2013-07-24 15:45:00,74.1,69.6,29.70,West,264,6.0,10.0,86,0.00,,,0.02,Wunderground v.1.15,2013-07-24 18:45:00,
2013-07-24 15:50:00,74.0,69.5,29.70,WNW,301,6.0,6.0,86,0.00,,,0.02,Wunderground v.1.15,2013-07-24 18:50:00,
2013-07-24 15:55:00,73.9,69.8,29.70,West,277,5.0,6.0,87,0.00,,,0.02,Wunderground v.1.15,2013-07-24 18:55:00,
2013-07-24 16:05:00,74.1,69.6,29.70,West,273,4.0,6.0,86,0.00,,,0.02,Wunderground v.1.15,2013-07-24 19:05:00,
2013-07-24 16:10:00,74.3,69.5,29.70,West,276,4.0,5.0,85,0.00,,,0.02,Wunderground v.1.15,2013-07-24 19:10:00,
2013-07-24 16:20:00,74.5,70.0,29.70,West,279,4.0,4.0,86,0.00,,,0.02,Wunderground v.1.15,2013-07-24 19:20:00,
2013-07-24 16:25:00,74.6,69.4,29.69,WNW,297,3.0,6.0,84,0.00,,,0.02,Wunderground v.1.15,2013-07-24 19:25:00,
2013-07-24 16:30:00,74.9,70.1,29.70,West,281,3.0,6.0,85,0.00,,,0.02,Wunderground v.1.15,2013-07-24 19:30:00,
2013-07-24 16:35:00,76.0,71.5,29.70,WSW,250,3.0,6.0,86,0.00,,,0.02,Wunderground v.1.15,2013-07-24 19:35:00,
2013-07-24 16:40:00,76.1,70.6,29.70,SW,223,4.0,4.0,83,0.00,,,0.02,Wunderground v.1.15,2013-07-24 19:40:00,
2013-07-24 16:45:00,76.2,70.3,29.70,West,281,5.0,5.0,82,0.00,,,0.02,Wunderground v.1.15,2013-07-24 19:45:00,
2013-07-24 16:50:00,76.3,70.0,29.70,WNW,294,4.0,6.0,81,0.00,,,0.02,Wunderground v.1.15,2013-07-24 19:50:00,
2013-07-24 16:55:00,76.3,70.4,29.70,WNW,287,3.0,6.0,82,0.00,,,0.02,Wunderground v.1.15,2013-07-24 19:55:00,
2013-07-24 17:00:00,75.8,69.6,29.70,West,271,3.0,3.0,81,0.00,,,0.02,Wunderground v.1.15,2013-07-24 20:00:00,
2013-07-24 17:05:00,75.3,69.1,29.70,WNW,286,5.0,5.0,81,0.00,,,0.02,Wunderground v.1.15,2013-07-24 20:05:00,
2013-07-24 17:11:00,75.3,69.8,29.70,West,264,4.0,5.0,83,0.00,,,0.02,Wunderground v.1.15,2013-07-24 20:11:00,
2013-07-24 17:21:00,76.0,69.7,29.70,West,273,4.0,4.0,81,0.00,,,0.02,Wunderground v.1.15,2013-07-24 20:21:00,
2013-07-24 17:25:00,76.6,70.7,29.70,WNW,284,3.0,7.0,82,0.00,,,0.02,Wunderground v.1.15,2013-07-24 20:25:00,
2013-07-24 17:30:00,77.0,70.4,29.71,WNW,285,4.0,10.0,80,0.00,,,0.02,Wunderground v.1.15,2013-07-24 20:30:00,
2013-07-24 17:35:00,77.3,70.3,29.71,SW,218,5.0,10.0,79,0.00,,,0.02,Wunderground v.1.15,2013-07-24 20:35:00,
2013-07-24 17:40:00,77.5,70.1,29.71,WNW,302,4.0,4.0,78,0.00,,,0.02,Wunderground v.1.15,2013-07-24 20:40:00,
2013-07-24 17:45:00,77.5,70.1,29.71,West,271,4.0,5.0,78,0.00,,,0.02,Wunderground v.1.15,2013-07-24 20:45:00,
2013-07-24 17:50:00,77.5,70.1,29.71,West,274,4.0,4.0,78,0.00,,,0.02,Wunderground v.1.15,2013-07-24 20:50:00,
2013-07-24 17:55:00,76.9,70.6,29.72,West,276,2.0,4.0,81,0.00,,,0.02,Wunderground v.1.15,2013-07-24 20:55:00,
2013-07-24 18:00:00,76.4,69.8,29.72,WNW,289,3.0,5.0,80,0.00,,,0.02,Wunderground v.1.15,2013-07-24 21:00:00,
2013-07-24 18:05:00,75.9,69.6,29.72,West,272,4.0,5.0,81,0.00,,,0.02,Wunderground v.1.15,2013-07-24 21:05:00,
2013-07-24 18:10:00,75.6,69.7,29.72,West,270,4.0,4.0,82,0.00,,,0.02,Wunderground v.1.15,2013-07-24 21:10:00,
2013-07-24 18:15:00,75.6,69.7,29.72,WNW,294,3.0,4.0,82,0.00,,,0.02,Wunderground v.1.15,2013-07-24 21:15:00,
2013-07-24 18:25:00,75.7,70.2,29.73,WSW,240,1.0,2.0,83,0.00,,,0.02,Wunderground v.1.15,2013-07-24 21:25:00,
2013-07-24 18:30:00,75.7,70.2,29.73,WNW,293,1.0,2.0,83,0.00,,,0.02,Wunderground v.1.15,2013-07-24 21:30:00,
2013-07-24 18:35:00,75.6,70.1,29.73,West,280,1.0,2.0,83,0.00,,,0.02,Wunderground v.1.15,2013-07-24 21:35:00,
2013-07-24 18:40:00,75.6,70.4,29.73,WSW,258,0.0,0.0,84,0.00,,,0.02,Wunderground v.1.15,2013-07-24 21:40:00,
2013-07-24 18:45:00,75.8,70.3,29.73,SW,234,0.0,0.0,83,0.00,,,0.02,Wunderground v.1.15,2013-07-24 21:45:00,
2013-07-24 18:50:00,76.0,70.5,29.73,WSW,244,1.0,1.0,83,0.00,,,0.02,Wunderground v.1.15,2013-07-24 21:50:00,
2013-07-24 18:55:00,76.5,70.6,29.73,SW,232,1.0,2.0,82,0.00,,,0.02,Wunderground v.1.15,2013-07-24 21:55:00,
2013-07-24 19:00:00,77.1,70.8,29.73,West,267,1.0,1.0,81,0.00,,,0.02,Wunderground v.1.15,2013-07-24 22:00:00,
2013-07-24 19:05:00,77.5,71.2,29.73,SW,225,2.0,2.0,81,0.00,,,0.02,Wunderground v.1.15,2013-07-24 22:05:00,
2013-07-24 19:10:00,77.6,70.9,29.73,WSW,246,2.0,2.0,80,0.00,,,0.02,Wunderground v.1.15,2013-07-24 22:10:00,
2013-07-24 19:15:00,77.6,70.9,29.73,SW,229,1.0,2.0,80,0.00,,,0.02,Wunderground v.1.15,2013-07-24 22:15:00,
2013-07-24 19:20:00,77.6,70.9,29.74,West,271,2.0,3.0,80,0.00,,,0.02,Wunderground v.1.15,2013-07-24 22:20:00,
2013-07-24 19:30:00,77.5,70.5,29.74,SSW,213,2.0,2.0,79,0.00,,,0.02,Wunderground v.1.15,2013-07-24 22:30:00,
2013-07-24 19:35:00,77.2,70.2,29.74,SSW,213,2.0,3.0,79,0.00,,,0.02,Wunderground v.1.15,2013-07-24 22:35:00,
2013-07-24 19:40:00,76.7,69.7,29.74,SW,219,2.0,3.0,79,0.00,,,0.02,Wunderground v.1.15,2013-07-24 22:40:00,
2013-07-24 19:45:00,76.4,70.5,29.74,SW,216,1.0,3.0,82,0.00,,,0.02,Wunderground v.1.15,2013-07-24 22:45:00,
2013-07-24 19:50:00,76.0,69.7,29.74,WSW,242,1.0,2.0,81,0.00,,,0.02,Wunderground v.1.15,2013-07-24 22:50:00,
2013-07-24 19:55:00,75.7,69.5,29.75,SW,236,2.0,2.0,81,0.00,,,0.02,Wunderground v.1.15,2013-07-24 22:55:00,
2013-07-24 20:00:00,75.4,69.5,29.75,WSW,237,1.0,1.0,82,0.00,,,0.02,Wunderground v.1.15,2013-07-24 23:00:00,
2013-07-24 20:05:00,75.1,69.2,29.75,SSW,206,3.0,3.0,82,0.00,,,0.02,Wunderground v.1.15,2013-07-24 23:05:00,
2013-07-24 20:10:00,74.8,69.3,29.75,SW,214,3.0,3.0,83,0.00,,,0.02,Wunderground v.1.15,2013-07-24 23:10:00,
2013-07-24 20:15:00,74.7,69.5,29.75,SW,219,3.0,3.0,84,0.00,,,0.02,Wunderground v.1.15,2013-07-24 23:15:00,
2013-07-24 20:20:00,74.6,69.4,29.75,SW,230,2.0,2.0,84,0.00,,,0.02,Wunderground v.1.15,2013-07-24 23:20:00,
2013-07-24 20:25:00,74.4,69.2,29.75,SW,225,1.0,2.0,84,0.00,,,0.02,Wunderground v.1.15,2013-07-24 23:25:00,
2013-07-24 20:30:00,74.1,69.3,29.75,SSW,212,1.0,1.0,85,0.00,,,0.02,Wunderground v.1.15,2013-07-24 23:30:00,
2013-07-24 20:35:00,73.7,69.2,29.75,SSW,209,1.0,2.0,86,0.00,,,0.02,Wunderground v.1.15,2013-07-24 23:35:00,
2013-07-24 20:40:00,73.2,69.1,29.76,SW,217,1.0,1.0,87,0.00,,,0.02,Wunderground v.1.15,2013-07-24 23:40:00,
2013-07-24 20:45:00,72.9,69.1,29.76,SW,217,1.0,1.0,88,0.00,,,0.02,Wunderground v.1.15,2013-07-24 23:45:00,
2013-07-24 20:50:00,72.5,69.1,29.76,SW,217,0.0,0.0,89,0.00,,,0.02,Wunderground v.1.15,2013-07-24 23:50:00,
2013-07-24 20:55:00,72.1,69.0,29.76,SW,217,0.0,0.0,90,0.00,,,0.02,Wunderground v.1.15,2013-07-24 23:55:00,
2013-07-24 21:00:00,71.6,68.2,29.76,SW,217,0.0,0.0,89,0.00,,,0.02,Wunderground v.1.15,2013-07-25 00:00:00,
2013-07-24 21:05:00,71.2,68.4,29.77,SW,220,0.0,1.0,91,0.00,,,0.02,Wunderground v.1.15,2013-07-25 00:05:00,
2013-07-24 21:10:00,71.0,68.6,29.77,WNW,288,1.0,1.0,92,0.00,,,0.02,Wunderground v.1.15,2013-07-25 00:10:00,
2013-07-24 21:15:00,70.9,68.5,29.77,WSW,258,1.0,1.0,92,0.00,,,0.02,Wunderground v.1.15,2013-07-25 00:15:00,
2013-07-24 21:20:00,70.7,68.3,29.78,WSW,258,0.0,0.0,92,0.00,,,0.02,Wunderground v.1.15,2013-07-25 00:20:00,
2013-07-24 21:25:00,70.5,68.1,29.78,WSW,255,0.0,1.0,92,0.00,,,0.02,Wunderground v.1.15,2013-07-25 00:25:00,
2013-07-24 21:30:00,70.3,68.2,29.79,WSW,256,0.0,0.0,93,0.00,,,0.02,Wunderground v.1.15,2013-07-25 00:30:00,
2013-07-24 21:35:00,70.2,68.1,29.79,WSW,256,0.0,0.0,93,0.00,,,0.02,Wunderground v.1.15,2013-07-25 00:35:00,
2013-07-24 21:40:00,70.2,68.1,29.79,WSW,256,0.0,1.0,93,0.00,,,0.02,Wunderground v.1.15,2013-07-25 00:40:00,
2013-07-24 21:45:00,70.2,68.1,29.79,SW,225,0.0,3.0,93,0.00,,,0.02,Wunderground v.1.15,2013-07-25 00:45:00,
2013-07-24 21:50:00,70.2,68.1,29.79,SW,229,1.0,1.0,93,0.00,,,0.02,Wunderground v.1.15,2013-07-25 00:50:00,
2013-07-24 21:55:00,70.2,68.1,29.80,WSW,250,1.0,1.0,93,0.00,,,0.02,Wunderground v.1.15,2013-07-25 00:55:00,
2013-07-24 22:00:00,70.2,67.8,29.80,West,273,1.0,2.0,92,0.00,,,0.02,Wunderground v.1.15,2013-07-25 01:00:00,
2013-07-24 22:05:00,70.4,68.0,29.80,West,273,2.0,3.0,92,0.00,,,0.02,Wunderground v.1.15,2013-07-25 01:05:00,
2013-07-24 22:10:00,70.9,67.8,29.80,West,272,3.0,3.0,90,0.00,,,0.02,Wunderground v.1.15,2013-07-25 01:10:00,
2013-07-24 22:15:00,71.1,67.7,29.80,West,271,4.0,4.0,89,0.00,,,0.02,Wunderground v.1.15,2013-07-25 01:15:00,
2013-07-24 22:20:00,71.3,67.9,29.81,West,263,4.0,4.0,89,0.00,,,0.02,Wunderground v.1.15,2013-07-25 01:20:00,
2013-07-24 22:30:00,71.8,68.1,29.81,West,275,5.0,5.0,88,0.00,,,0.02,Wunderground v.1.15,2013-07-25 01:30:00,
2013-07-24 22:35:00,71.6,67.9,29.82,West,272,5.0,5.0,88,0.00,,,0.02,Wunderground v.1.15,2013-07-25 01:35:00,
2013-07-24 22:40:00,71.3,67.9,29.82,West,279,4.0,4.0,89,0.00,,,0.02,Wunderground v.1.15,2013-07-25 01:40:00,
2013-07-24 22:45:00,71.3,67.9,29.82,WNW,282,3.0,4.0,89,0.00,,,0.02,Wunderground v.1.15,2013-07-25 01:45:00,
2013-07-24 22:50:00,71.1,68.0,29.82,West,269,3.0,3.0,90,0.00,,,0.02,Wunderground v.1.15,2013-07-25 01:50:00,
2013-07-24 22:55:00,71.0,67.9,29.82,West,272,2.0,3.0,90,0.00,,,0.02,Wunderground v.1.15,2013-07-25 01:55:00,
2013-07-24 23:00:00,70.9,67.8,29.83,WNW,290,2.0,3.0,90,0.00,,,0.02,Wunderground v.1.15,2013-07-25 02:00:00,
2013-07-24 23:05:00,70.9,67.8,29.83,WNW,289,3.0,3.0,90,0.00,,,0.02,Wunderground v.1.15,2013-07-25 02:05:00,
2013-07-24 23:10:00,70.6,67.8,29.83,WNW,294,2.0,5.0,91,0.00,,,0.02,Wunderground v.1.15,2013-07-25 02:10:00,
2013-07-24 23:20:00,70.1,67.7,29.83,WNW,290,2.0,2.0,92,0.00,,,0.02,Wunderground v.1.15,2013-07-25 02:20:00,
2013-07-24 23:25:00,70.0,67.9,29.83,WSW,256,2.0,3.0,93,0.00,,,0.02,Wunderground v.1.15,2013-07-25 02:25:00,
2013-07-24 23:30:00,69.9,67.8,29.83,West,281,3.0,4.0,93,0.00,,,0.02,Wunderground v.1.15,2013-07-25 02:30:00,
2013-07-24 23:35:00,69.7,67.6,29.83,WNW,283,3.0,4.0,93,0.00,,,0.02,Wunderground v.1.15,2013-07-25 02:35:00,
2013-07-24 23:40:00,69.4,67.6,29.83,West,264,3.0,6.0,94,0.00,,,0.02,Wunderground v.1.15,2013-07-25 02:40:00,
2013-07-24 23:45:00,69.3,67.5,29.83,WNW,290,3.0,6.0,94,0.00,,,0.02,Wunderground v.1.15,2013-07-25 02:45:00,
2013-07-24 23:50:00,69.1,67.3,29.84,WNW,282,3.0,4.0,94,0.00,,,0.02,Wunderground v.1.15,2013-07-25 02:50:00,
2013-07-24 23:55:00,69.0,67.5,29.84,West,263,3.0,4.0,95,0.00,,,0.02,Wunderground v.1.15,2013-07-25 02:55:00,